Location: Alsip
(41.6689°N, 87.7387°W)
Time: 15:04:24
(UTC+00:00)

Meteor 2-17 Rocket - Pass Details

Date: 14 July 2020
Orbit: 935 x 956 km, 82.5° (Epoch: 12 August)

Event Time Altitude Azimuth Distance (km) Brightness Sun altitude
Exits shadow 03:02:51 13° 177° (S) 2,419 6.1 -15.0°
Maximum altitude 03:08:15 72° 95° (E) 983 4.4 -15.7°
Drops below altitude 10° 03:14:17 10° 12° (NNE) 2,655 7.3 -16.4°
Sets 03:16:46 0° 11° (N) 3,603 8.1 -16.7°
